TimeMST,TemperatureF,Dew PointF,Humidity,Sea Level PressureIn,VisibilityMPH,Wind Direction,Wind SpeedMPH,Gust SpeedMPH,PrecipitationIn,Events,Conditions,WindDirDegrees,DateUTC
12:15 AM,32.0,21.2,64,30.15,10.0,Calm,Calm,-,N/A,,Overcast,0,2013-11-25 07:15:00
12:55 AM,28.4,17.6,64,30.15,10.0,SSW,4.6,-,N/A,,Scattered Clouds,210,2013-11-25 07:55:00
1:15 AM,28.4,17.6,64,30.15,10.0,SSE,5.8,-,N/A,,Mostly Cloudy,150,2013-11-25 08:15:00
1:35 AM,28.4,19.4,69,30.15,10.0,South,4.6,-,N/A,,Overcast,180,2013-11-25 08:35:00
1:55 AM,28.4,17.6,64,30.16,10.0,SSW,5.8,-,N/A,,Overcast,210,2013-11-25 08:55:00
2:15 AM,30.2,17.6,60,30.17,10.0,South,4.6,-,N/A,,Mostly Cloudy,170,2013-11-25 09:15:00
2:35 AM,28.4,17.6,64,30.17,10.0,Calm,Calm,-,N/A,,Overcast,0,2013-11-25 09:35:00
2:55 AM,26.6,17.6,69,30.17,10.0,Calm,Calm,-,N/A,,Overcast,0,2013-11-25 09:55:00
3:15 AM,26.6,19.4,74,30.18,10.0,Calm,Calm,-,N/A,,Overcast,0,2013-11-25 10:15:00
3:35 AM,24.8,17.6,74,30.17,10.0,Calm,Calm,-,N/A,,Overcast,0,2013-11-25 10:35:00
3:55 AM,24.8,17.6,74,30.17,10.0,SSW,4.6,-,N/A,,Scattered Clouds,200,2013-11-25 10:55:00
4:15 AM,24.8,17.6,74,30.18,10.0,Calm,Calm,-,N/A,,Mostly Cloudy,0,2013-11-25 11:15:00
4:35 AM,26.6,17.6,69,30.18,10.0,SSW,5.8,-,N/A,,Partly Cloudy,200,2013-11-25 11:35:00
4:55 AM,24.8,19.4,80,30.17,10.0,SSW,3.5,-,N/A,,Clear,200,2013-11-25 11:55:00
5:15 AM,26.6,19.4,74,30.18,10.0,SSW,3.5,-,N/A,,Clear,200,2013-11-25 12:15:00
5:35 AM,26.6,19.4,74,30.19,10.0,West,3.5,-,N/A,,Clear,260,2013-11-25 12:35:00
5:55 AM,26.6,17.6,69,30.20,10.0,Calm,Calm,-,N/A,,Clear,0,2013-11-25 12:55:00
6:15 AM,24.8,15.8,69,30.20,10.0,South,4.6,-,N/A,,Scattered Clouds,190,2013-11-25 13:15:00
6:35 AM,24.8,17.6,74,30.21,10.0,South,4.6,-,N/A,,Overcast,190,2013-11-25 13:35:00
6:55 AM,24.8,17.6,74,30.21,10.0,South,3.5,-,N/A,,Scattered Clouds,170,2013-11-25 13:55:00
7:15 AM,24.8,17.6,74,30.21,10.0,Calm,Calm,-,N/A,,Clear,0,2013-11-25 14:15:00
7:35 AM,23.0,17.6,80,30.22,10.0,SSE,3.5,-,N/A,,Clear,160,2013-11-25 14:35:00
7:55 AM,23.0,15.8,74,30.23,10.0,Calm,Calm,-,N/A,,Clear,0,2013-11-25 14:55:00
8:15 AM,21.2,15.8,80,30.24,10.0,Calm,Calm,-,N/A,,Clear,0,2013-11-25 15:15:00
8:35 AM,21.2,15.8,80,30.24,10.0,South,5.8,-,N/A,,Clear,170,2013-11-25 15:35:00
8:55 AM,24.8,17.6,74,30.25,10.0,Calm,Calm,-,N/A,,Clear,0,2013-11-25 15:55:00
9:15 AM,26.6,17.6,69,30.26,10.0,Calm,Calm,-,N/A,,Scattered Clouds,0,2013-11-25 16:15:00
9:35 AM,28.4,19.4,69,30.26,10.0,Calm,Calm,-,N/A,,Scattered Clouds,0,2013-11-25 16:35:00
9:55 AM,30.2,19.4,64,30.27,10.0,South,3.5,-,N/A,,Clear,180,2013-11-25 16:55:00
10:15 AM,32.0,21.2,64,30.28,10.0,South,3.5,-,N/A,,Clear,170,2013-11-25 17:15:00
10:35 AM,33.8,21.2,60,30.28,10.0,Calm,Calm,-,N/A,,Clear,0,2013-11-25 17:35:00
10:55 AM,33.8,21.2,60,30.28,10.0,Calm,Calm,-,N/A,,Clear,0,2013-11-25 17:55:00
11:15 AM,33.8,21.2,60,30.28,10.0,Calm,Calm,-,N/A,,Clear,0,2013-11-25 18:15:00
11:35 AM,35.6,21.2,56,30.28,10.0,Calm,Calm,-,N/A,,Clear,0,2013-11-25 18:35:00
11:55 AM,35.6,21.2,56,30.28,10.0,Calm,Calm,-,N/A,,Clear,0,2013-11-25 18:55:00
12:15 PM,37.4,23.0,56,30.27,10.0,Calm,Calm,-,N/A,,Clear,0,2013-11-25 19:15:00
12:35 PM,37.4,21.2,52,30.27,10.0,Calm,Calm,-,N/A,,Clear,0,2013-11-25 19:35:00
12:55 PM,37.4,21.2,52,30.27,10.0,ENE,4.6,-,N/A,,Clear,60,2013-11-25 19:55:00
1:15 PM,37.4,21.2,52,30.27,10.0,ENE,4.6,-,N/A,,Clear,60,2013-11-25 20:15:00
1:35 PM,37.4,23.0,56,30.26,10.0,ENE,5.8,-,N/A,,Clear,60,2013-11-25 20:35:00
1:55 PM,37.4,21.2,52,30.26,10.0,NE,6.9,-,N/A,,Clear,40,2013-11-25 20:55:00
2:15 PM,37.4,21.2,52,30.27,10.0,NE,6.9,-,N/A,,Clear,50,2013-11-25 21:15:00
2:35 PM,37.4,21.2,52,30.27,10.0,NE,5.8,-,N/A,,Clear,50,2013-11-25 21:35:00
2:55 PM,37.4,23.0,56,30.27,10.0,NE,5.8,-,N/A,,Clear,50,2013-11-25 21:55:00
3:15 PM,35.6,23.0,60,30.28,10.0,NE,5.8,-,N/A,,Clear,50,2013-11-25 22:15:00
3:35 PM,35.6,23.0,60,30.29,10.0,NE,3.5,-,N/A,,Clear,50,2013-11-25 22:35:00
3:55 PM,35.6,23.0,60,30.29,10.0,Calm,Calm,-,N/A,,Clear,0,2013-11-25 22:55:00
4:15 PM,35.6,21.2,56,30.29,10.0,Calm,Calm,-,N/A,,Clear,0,2013-11-25 23:15:00
4:35 PM,35.6,21.2,56,30.29,10.0,Calm,Calm,-,N/A,,Clear,0,2013-11-25 23:35:00
4:55 PM,30.2,21.2,69,30.29,10.0,Calm,Calm,-,N/A,,Clear,0,2013-11-25 23:55:00
5:15 PM,26.6,19.4,74,30.29,10.0,South,5.8,-,N/A,,Clear,170,2013-11-26 00:15:00
5:55 PM,24.8,17.6,74,30.30,10.0,South,6.9,-,N/A,,Clear,180,2013-11-26 00:55:00
6:15 PM,24.8,17.6,74,30.30,10.0,South,8.1,-,N/A,,Clear,180,2013-11-26 01:15:00
6:55 PM,26.6,19.4,74,30.30,10.0,Calm,Calm,-,N/A,,Clear,0,2013-11-26 01:55:00
7:15 PM,26.6,19.4,74,30.31,10.0,SW,3.5,-,N/A,,Clear,230,2013-11-26 02:15:00
7:55 PM,26.6,17.6,69,30.31,10.0,SSW,10.4,-,N/A,,Clear,210,2013-11-26 02:55:00
8:15 PM,28.4,19.4,69,30.33,10.0,SW,4.6,-,N/A,,Clear,230,2013-11-26 03:15:00
8:35 PM,26.6,17.6,69,30.33,10.0,SSW,3.5,-,N/A,,Clear,200,2013-11-26 03:35:00
8:55 PM,24.8,19.4,80,30.33,10.0,Calm,Calm,-,N/A,,Clear,0,2013-11-26 03:55:00
9:15 PM,26.6,19.4,74,30.34,10.0,SW,5.8,-,N/A,,Clear,220,2013-11-26 04:15:00
9:35 PM,26.6,19.4,74,30.34,10.0,SSE,4.6,-,N/A,,Clear,160,2013-11-26 04:35:00
9:55 PM,24.8,17.6,74,30.34,10.0,South,6.9,-,N/A,,Clear,190,2013-11-26 04:55:00
10:15 PM,26.6,19.4,74,30.34,10.0,SSW,3.5,-,N/A,,Clear,200,2013-11-26 05:15:00
10:35 PM,24.8,17.6,74,30.34,10.0,South,4.6,-,N/A,,Clear,170,2013-11-26 05:35:00
10:55 PM,24.8,17.6,74,30.35,10.0,SSW,4.6,-,N/A,,Mostly Cloudy,200,2013-11-26 05:55:00
11:15 PM,26.6,19.4,74,30.34,10.0,SSW,6.9,-,N/A,,Overcast,200,2013-11-26 06:15:00
11:35 PM,28.4,21.2,74,30.34,10.0,SW,3.5,-,N/A,,Overcast,220,2013-11-26 06:35:00